Weather History for KGHW - December, 2013

Change the Weather History Date:

Friday, December 20, 2013

  Actual Average Record
Temperature  
Mean Temperature 3 °F -  
Max Temperature 10 °F 20 °F - (-1)
Min Temperature -4 °F 1 °F - (-1)
Degree Days  
Heating Degree Days 62    
Moisture  
Dew Point 0 °F    
Average Humidity 84    
Maximum Humidity 92    
Minimum Humidity 72    
Precipitation  
Precipitation 0.00 in - - ()
Sea Level Pressure  
Sea Level Pressure 29.94 in    
Wind  
Wind Speed 8 mph (North)    
Max Wind Speed 16 mph    
Max Gust Speed -    
Visibility 9 miles    
Events Snow    
Averages and records for this station are not official NWS values.
T = Trace of Precipitation, MM = Missing Value Source: NWS Daily Summary

Daily Weather History Graph

Daily Weather History Graph

Search for Another Location

Airport or City:

Trip Planner

Search our weather history database for the weather conditions in past years. The results will help you decide how hot, cold, wet, or windy it might be!

Date:

Astronomy

Dec. 20, 2013 Rise Set
Actual Time 7:58 AM CST 4:39 PM CST
Civil Twilight 7:24 AM CST 5:14 PM CST
Nautical Twilight 6:46 AM CST 5:51 PM CST
Astronomical Twilight 6:10 AM CST 6:28 PM CST
Moon 8:10 PM CST (12/20) 9:44 AM CST (12/20)
Length of Visible Light 9h 49m
Length of Day
8h 41m
Waning Gibbous, 90% of the Moon is Illuminated
Dec 20
Waning Gibbous
Dec 25
Last Quarter
Jan 1
New
Jan 7
First Quarter
Jan 15
Full

Hourly Weather History & Observations

Time (CST) Temp. Windchill Dew Point Humidity Pressure Visibility Wind Dir Wind Speed Gust Speed Precip Events Conditions
12:13 AM 8.6 °F -7.0 °F 5.0 °F 85% 30.04 in 10.0 mi NNE 12.7 mph - N/A   Overcast
12:33 AM 8.6 °F -8.9 °F 3.2 °F 79% 30.03 in 7.0 mi NNE 16.1 mph - N/A   Overcast
12:54 AM 8.6 °F -6.3 °F 3.2 °F 79% 30.02 in 10.0 mi NE 11.5 mph - N/A   Overcast
1:13 AM 8.6 °F -6.3 °F 3.2 °F 79% 30.02 in 7.0 mi NNE 11.5 mph - N/A   Scattered Clouds
1:33 AM 8.6 °F -6.3 °F 3.2 °F 79% 30.02 in 5.0 mi NNE 11.5 mph - N/A Snow Light Snow
1:54 AM 6.8 °F -8.6 °F 3.2 °F 85% 30.03 in 7.0 mi NNE 11.5 mph - N/A   Clear
2:13 AM 6.8 °F -6.9 °F 3.2 °F 85% 30.03 in 7.0 mi NNE 9.2 mph - N/A   Mostly Cloudy
2:33 AM 5.0 °F -9.1 °F 1.4 °F 85% 30.03 in 10.0 mi NNE 9.2 mph - N/A   Overcast
2:53 AM 3.2 °F -11.3 °F 1.4 °F 92% 30.03 in 7.0 mi North 9.2 mph - N/A Snow Light Snow
3:13 AM 1.4 °F -14.5 °F -0.4 °F 92% 30.03 in 10.0 mi North 10.4 mph - N/A   Scattered Clouds
3:33 AM 1.4 °F -13.5 °F -0.4 °F 92% 30.03 in 10.0 mi North 9.2 mph - N/A   Clear
3:53 AM 1.4 °F -14.5 °F -2.2 °F 85% 30.02 in 10.0 mi North 10.4 mph - N/A   Clear
4:13 AM 1.4 °F -14.5 °F -2.2 °F 85% 30.02 in 10.0 mi North 10.4 mph - N/A   Clear
4:33 AM 1.4 °F -14.5 °F -2.2 °F 85% 30.01 in 10.0 mi North 10.4 mph - N/A   Clear
4:53 AM -0.4 °F -16.7 °F -2.2 °F 92% 30.01 in 10.0 mi North 10.4 mph - N/A   Clear
5:13 AM -0.4 °F -15.7 °F -2.2 °F 92% 30.01 in 10.0 mi North 9.2 mph - N/A   Clear
5:34 AM -0.4 °F -15.7 °F -4.0 °F 85% 30.01 in 10.0 mi North 9.2 mph - N/A   Clear
5:53 AM -0.4 °F -14.7 °F -4.0 °F 85% 30.01 in 10.0 mi North 8.1 mph - N/A   Clear
6:13 AM -0.4 °F -15.7 °F -4.0 °F 85% 30.01 in 10.0 mi North 9.2 mph - N/A Snow Light Snow
6:34 AM -2.2 °F -18.0 °F -5.8 °F 85% 30.01 in 10.0 mi North 9.2 mph - N/A   Clear
6:53 AM -2.2 °F -18.0 °F -5.8 °F 85% 30.00 in 10.0 mi North 9.2 mph - N/A Snow Light Snow
7:13 AM -2.2 °F -18.0 °F -5.8 °F 85% 30.00 in 4.0 mi North 9.2 mph - N/A Snow Light Snow
7:34 AM -2.2 °F -18.0 °F -5.8 °F 85% 30.00 in 10.0 mi North 9.2 mph - N/A   Scattered Clouds
7:53 AM -2.2 °F -18.0 °F -5.8 °F 85% 30.00 in 10.0 mi North 9.2 mph - N/A   Clear
8:13 AM -2.2 °F -18.9 °F -5.8 °F 85% 30.00 in 10.0 mi North 10.4 mph - N/A   Clear
8:34 AM -2.2 °F -16.8 °F -5.8 °F 85% 30.00 in 10.0 mi NNE 8.1 mph - N/A   Clear
8:53 AM -4.0 °F -17.8 °F -7.6 °F 85% 29.99 in 10.0 mi NNE 6.9 mph - N/A   Clear
9:13 AM -2.2 °F -15.6 °F -5.8 °F 85% 29.99 in 10.0 mi NNE 6.9 mph - N/A   Clear
9:33 AM -2.2 °F -14.2 °F -5.8 °F 85% 29.99 in 1.2 mi NNE 5.8 mph - N/A Snow Light Snow
9:53 AM -0.4 °F -12.0 °F -4.0 °F 85% 29.98 in 4.0 mi NNE 5.8 mph - N/A   Scattered Clouds
10:13 AM 1.4 °F -9.9 °F -2.2 °F 85% 29.99 in 10.0 mi NNE 5.8 mph - N/A   Clear
10:33 AM 1.4 °F -9.9 °F -2.2 °F 85% 29.99 in 10.0 mi North 5.8 mph - N/A   Clear
10:53 AM 1.4 °F -11.3 °F -0.4 °F 92% 29.98 in 10.0 mi NNE 6.9 mph - N/A   Clear
11:14 AM 3.2 °F -9.1 °F -0.4 °F 85% 29.97 in 10.0 mi NE 6.9 mph - N/A   Clear
11:33 AM 3.2 °F -9.1 °F -0.4 °F 85% 29.96 in 10.0 mi NNE 6.9 mph - N/A   Clear
11:53 AM 3.2 °F -7.8 °F -0.4 °F 85% 29.95 in 10.0 mi North 5.8 mph - N/A   Clear
12:14 PM 6.8 °F -0.1 °F 1.4 °F 79% 29.95 in 10.0 mi NNE 3.5 mph - N/A   Clear
12:33 PM 6.8 °F -0.1 °F -0.4 °F 72% 29.94 in 10.0 mi WNW 3.5 mph - N/A   Clear
12:53 PM 6.8 °F -0.1 °F 1.4 °F 79% 29.93 in 10.0 mi WNW 3.5 mph - N/A Snow Light Snow
1:14 PM 6.8 °F -0.1 °F 1.4 °F 79% 29.93 in 10.0 mi WNW 3.5 mph - N/A   Clear
1:33 PM 8.6 °F - 3.2 °F 79% 29.92 in 5.0 mi Calm Calm - N/A Snow Light Snow
1:53 PM 8.6 °F 0.1 °F 1.4 °F 73% 29.92 in 5.0 mi NW 4.6 mph - N/A Snow Light Snow
2:14 PM 8.6 °F - 3.2 °F 79% 29.91 in 4.0 mi Calm Calm - N/A Snow Light Snow
2:33 PM 8.6 °F - 3.2 °F 79% 29.89 in 5.0 mi Calm Calm - N/A Snow Light Snow
2:53 PM 10.4 °F - 3.2 °F 73% 29.88 in 7.0 mi Calm Calm - N/A   Scattered Clouds
3:14 PM 8.6 °F - 3.2 °F 79% 29.88 in 10.0 mi Calm Calm - N/A   Clear
3:33 PM 8.6 °F 2.0 °F 3.2 °F 79% 29.88 in 10.0 mi WNW 3.5 mph - N/A   Clear
3:53 PM 6.8 °F -0.1 °F 1.4 °F 79% 29.87 in 10.0 mi West 3.5 mph - N/A   Clear
4:13 PM 3.2 °F -7.8 °F -0.4 °F 85% 29.88 in 10.0 mi WNW 5.8 mph - N/A   Clear
4:33 PM 3.2 °F -7.8 °F -0.4 °F 85% 29.88 in 10.0 mi WNW 5.8 mph - N/A   Clear
4:53 PM 1.4 °F -11.3 °F -2.2 °F 85% 29.88 in 10.0 mi WNW 6.9 mph - N/A   Clear
5:13 PM 1.4 °F -11.3 °F -0.4 °F 92% 29.88 in 10.0 mi WNW 6.9 mph - N/A   Clear
5:34 PM 1.4 °F -12.5 °F -0.4 °F 92% 29.86 in 10.0 mi NW 8.1 mph - N/A   Mostly Cloudy
5:53 PM 3.2 °F -7.8 °F -0.4 °F 85% 29.86 in 10.0 mi NW 5.8 mph - N/A   Mostly Cloudy
6:13 PM 3.2 °F -4.2 °F -0.4 °F 85% 29.86 in 10.0 mi WNW 3.5 mph - N/A   Scattered Clouds
6:33 PM 3.2 °F -4.2 °F -0.4 °F 85% 29.86 in 10.0 mi SSW 3.5 mph - N/A   Mostly Cloudy
6:53 PM 3.2 °F -4.2 °F 1.4 °F 92% 29.87 in 10.0 mi SSW 3.5 mph - N/A Snow Light Snow
7:13 PM 5.0 °F -2.1 °F 1.4 °F 85% 29.87 in 10.0 mi South 3.5 mph - N/A Snow Light Snow
7:33 PM 5.0 °F - 1.4 °F 85% 29.87 in 7.0 mi Calm Calm - N/A Snow Light Snow
7:53 PM 6.8 °F -0.1 °F 3.2 °F 85% 29.87 in 10.0 mi WSW 3.5 mph - N/A Snow Light Snow
8:13 PM 6.8 °F - 3.2 °F 85% 29.85 in 10.0 mi Calm Calm - N/A Snow Light Snow
8:33 PM 6.8 °F - 3.2 °F 85% 29.85 in 7.0 mi Calm Calm - N/A Snow Light Snow
8:53 PM 6.8 °F - 3.2 °F 85% 29.84 in 5.0 mi Calm Calm - N/A Snow Light Snow
9:13 PM 6.8 °F - 3.2 °F 85% 29.84 in 5.0 mi Calm Calm - N/A Snow Light Snow
9:33 PM 6.8 °F - 3.2 °F 85% 29.83 in 7.0 mi Calm Calm - N/A Snow Light Snow
9:53 PM 6.8 °F - 3.2 °F 85% 29.84 in 10.0 mi Calm Calm - N/A Snow Light Snow
10:13 PM 5.0 °F -4.1 °F 1.4 °F 85% 29.84 in 10.0 mi SW 4.6 mph - N/A Snow Light Snow
10:33 PM 5.0 °F - 3.2 °F 92% 29.84 in 10.0 mi Calm Calm - N/A Snow Light Snow
10:53 PM 6.8 °F - 3.2 °F 85% 29.83 in 7.0 mi Calm Calm - N/A Snow Light Snow
11:14 PM 6.8 °F - 3.2 °F 85% 29.82 in 10.0 mi Calm Calm - N/A   Overcast
11:33 PM 6.8 °F -0.1 °F 3.2 °F 85% 29.83 in 10.0 mi SW 3.5 mph - N/A   Overcast
11:53 PM 8.6 °F 2.0 °F 6.8 °F 92% 29.83 in 10.0 mi SW 3.5 mph - N/A   Overcast